Temp
17 17 17 17 17 17 17 17 16 16 16 15 15 15 14 14 14 13 13 13 12 12 12 12 11 11 10 10 10 9 9 9 9 8 8 7 7 7 6 6 6 6 6
17 17 17 17 17 17 17 17 17 16 15 15 15 15 15 14 14 14 14 13 13 12 12 12 11 11 10 10 9 9 9 8 8 8 7 7 6 6 6 6 6 6 6
17 17 17 17 17 17 17 16 16 16 15 15 15 15 14 14 14 14 14 13 13 12 12 12 11 11 11 10 9 9 8 8 8 7 7 6 6 6 5 5 5 5 5
17 17 17 17 17 16 16 16 16 15 15 15 15 15 14 14 14 14 14 14 13 12 12 12 11 11 11 10 9 9 8 8 8 7 7 6 6 6 6 5 5 5 5
17 17 17 17 17 16 16 16 15 15 15 15 15 15 14 14 14 14 14 14 14 12 12 12 11 11 11 10 9 9 9 8 8 7 6 6 6 6 6 5 5 5 5
17 17 17 17 17 16 16 16 16 15 15 15 15 14 14 14 14 14 14 14 13 13 12 12 11 11 11 10 10 9 9 8 8 7 7 6 6 6 6 6 5 4 4
16 17 16 16 17 16 16 16 15 15 15 14 13 13 13 13 14 14 14 14 13 13 12 12 12 11 11 11 11 9 9 9 8 8 7 6 6 5 6 6 4 4 4
16 16 17 16 16 15 16 16 16 15 14 14 14 12 10 12 13 13 13 13 13 12 11 11 11 11 11 11 11 10 9 9 9 8 7 7 6 5 5 5 4 4 4
17 16 16 16 16 16 16 16 16 15 15 14 14 15 9 10 11 13 13 13 13 12 12 12 11 11 11 11 10 10 10 9 9 9 8 7 6 5 5 5 4 4 4
17 17 16 16 17 16 16 16 16 15 15 15 13 14 14 14 10 10 11 12 12 12 12 12 12 12 11 11 10 10 10 9 9 9 8 8 7 6 5 5 4 4 4
16 17 16 16 16 16 16 16 16 15 15 15 14 13 12 12 12 11 10 10 11 12 12 12 12 11 11 11 10 10 10 9 9 9 8 8 7 7 6 5 5 5 4
16 17 16 16 17 16 16 16 16 15 15 14 14 14 14 12 11 10 9 9 10 11 11 12 11 11 11 11 10 10 9 9 9 8 8 8 7 7 6 6 5 5 5
16 16 16 16 17 16 16 16 15 14 13 13 13 13 13 13 14 13 11 9 8 10 10 10 10 10 10 10 10 9 9 9 9 8 8 8 7 7 6 6 6 6 5
15 15 15 16 17 16 16 15 14 13 12 12 12 12 12 12 12 13 12 10 6 7 8 9 10 10 9 9 9 9 8 9 9 8 8 7 7 6 6 6 6 5 5
14 14 15 16 17 16 15 14 13 13 11 12 12 11 12 11 11 11 11 11 9 6 6 8 8 8 8 7 8 7 7 7 8 8 8 7 7 7 6 6 5 5 5
14 15 16 16 15 15 14 13 13 14 12 12 11 10 10 10 10 10 9 9 8 7 5 7 7 7 7 7 7 6 6 6 6 6 6 6 6 6 5 4 4 4 4
15 15 15 15 15 14 13 13 12 12 11 10 10 10 9 9 10 8 7 7 6 6 4 5 5 5 5 6 6 6 5 5 5 5 5 5 5 5 5 5 3 3 3
13 14 14 15 15 12 12 12 12 12 11 10 10 9 8 8 8 7 7 6 6 5 4 4 4 4 5 5 5 4 4 4 3 4 3 4 4 4 4 4 3 4 3
14 14 13 14 13 13 12 12 12 11 11 10 8 8 8 7 7 6 6 5 5 5 4 3 2 2 3 3 3 3 2 2 2 2 2 2 2 2 2 2 2 3 2
13 13 12 12 12 12 13 12 12 10 9 8 8 8 8 7 7 6 5 4 4 4 3 2 1 1 1 1 1 0 -0 1 -0 1 1 1 1 1 1 1 1 1 1
13 12 12 12 12 12 12 11 11 9 8 8 7 7 6 6 6 5 5 4 3 3 2 1 0 -0 -1 -1 -2 -3 -3 -3 -3 -1 -1 -1 -1 -1 -1 -1 -1 -0 -0
12 12 12 12 12 11 11 10 10 9 8 7 6 5 5 4 4 3 3 3 2 2 1 -0 -1 -2 -2 -3 -4 -4 -4 -5 -3 -2 -3 -4 -4 -4 -3 -3 -2 -2 -2
12 12 12 12 11 10 10 9 8 8 7 6 5 4 3 3 3 2 1 1 1 0 -1 -1 -2 -3 -4 -4 -5 -5 -6 -6 -6 -5 -5 -5 -4 -4 -4 -4 -3 -3 -3
11 11 10 10 9 9 8 7 7 6 6 5 4 3 3 2 1 1 0 0 -1 -1 -2 -3 -4 -4 -5 -5 -5 -6 -6 -6 -6 -5 -5 -5 -4 -4 -4 -4 -4 -3 -2
8 8 8 7 8 7 6 6 6 5 4 3 2 2 1 -0 -1 0 -0 0 -1 -2 -4 -5 -5 -5 -5 -5 -6 -7 -6 -7 -7 -6 -6 -6 -5 -5 -5 -5 -4 -2 -2
6 6 5 5 5 4 4 4 5 4 2 1 -0 -1 -1 -1 -1 -1 1 -1 -3 -5 -5 -6 -5 -5 -6 -6 -7 -7 -8 -8 -8 -8 -5 -7 -7 -7 -6 -4 -3 -3 -2
Height
834 837 841 845 847 850 850 853 856 858 862 864 865 867 870 871 873 875 876 878 879 880 882 884 885 886 887 888 889 889 891 891 892 893 893 893 894 894 894 894 894 892 893
834 838 841 844 847 849 851 853 856 859 863 865 866 869 870 872 874 875 876 878 880 882 884 885 886 888 887 888 888 889 890 891 892 892 893 894 894 894 893 893 894 893 892
834 837 841 844 847 847 850 853 856 860 862 865 868 870 872 872 873 875 876 878 881 883 885 886 887 888 888 888 888 889 890 890 892 892 893 894 892 893 893 892 892 892 891
835 838 841 843 846 848 850 851 857 859 862 864 866 870 873 873 874 875 876 877 879 881 883 885 886 887 888 888 888 889 890 890 890 890 892 892 891 891 891 890 890 891 890
837 839 841 844 844 848 850 854 857 860 862 864 865 868 869 871 872 874 874 875 877 880 882 883 885 885 886 887 888 887 888 889 890 890 891 890 890 890 889 889 889 888 887
837 839 841 843 843 848 850 853 855 859 861 862 865 866 868 869 869 870 872 873 876 878 879 881 882 883 884 885 886 886 887 888 889 890 890 889 889 889 889 888 888 887 886
835 837 840 840 842 846 850 852 854 857 857 860 862 866 866 866 865 866 869 870 873 875 877 878 879 881 882 882 883 884 885 886 887 887 887 887 887 886 886 886 885 885 884
832 834 835 839 842 844 848 849 850 853 855 857 860 864 867 867 862 862 864 866 869 871 873 875 876 877 878 879 879 881 881 883 884 884 884 884 884 883 883 883 883 882 881
828 831 835 837 839 841 844 845 846 849 850 852 854 859 865 862 858 856 858 861 863 865 868 870 871 872 872 874 875 876 877 878 879 880 880 880 880 880 879 879 878 878 878
824 828 831 833 834 836 839 840 843 844 845 846 851 852 852 852 855 856 855 857 859 861 862 863 864 865 866 868 870 871 871 873 873 874 875 875 875 874 874 874 874 873 872
818 822 826 827 830 832 833 835 837 838 840 841 842 844 846 849 848 848 853 853 855 854 856 858 860 861 861 862 862 864 865 866 868 868 869 869 869 869 869 869 869 869 868
812 814 818 822 824 827 827 829 830 832 835 837 838 839 838 840 841 842 846 846 848 850 852 851 854 855 856 856 856 857 860 862 862 862 863 864 864 863 863 863 862 862 863
803 807 811 815 817 820 821 823 825 827 829 831 830 833 835 835 835 836 838 842 845 846 847 847 849 851 851 850 850 851 853 856 857 858 858 857 857 857 858 857 856 855 855
799 803 806 807 810 814 816 818 819 822 824 825 823 823 825 828 829 830 831 834 841 842 843 843 844 846 848 848 848 848 848 849 849 848 849 849 849 849 848 848 847 846 846
794 797 798 800 802 807 809 810 812 811 815 817 816 819 820 820 821 824 825 827 828 838 838 838 840 842 843 843 844 843 842 843 843 842 842 841 840 839 839 839 838 837 836
789 788 789 793 798 799 801 803 802 800 803 807 811 813 813 812 814 817 819 821 825 829 834 833 834 837 838 838 838 838 838 838 838 837 835 835 833 833 832 832 830 829 828
776 781 785 788 788 789 790 792 787 794 795 801 803 804 804 806 808 812 815 818 820 826 825 831 830 832 832 832 832 832 831 831 831 831 830 828 825 825 823 821 820 820 820
768 771 773 777 777 779 783 783 786 788 790 793 793 796 797 801 804 807 810 812 817 822 822 824 826 826 826 826 826 825 825 824 823 823 822 820 817 816 814 813 810 808 806
760 762 765 768 769 771 775 778 781 783 783 785 787 790 793 796 799 801 806 809 813 817 817 819 822 822 822 822 820 819 818 816 816 816 813 811 808 806 804 803 800 798 796
752 756 758 760 762 763 766 768 773 775 778 779 781 784 787 790 792 798 803 808 811 813 815 816 817 818 820 819 816 814 812 810 808 806 803 803 799 796 796 793 791 788 785
742 748 752 753 755 756 758 762 765 768 770 774 778 781 785 788 792 797 801 805 808 811 812 813 815 816 816 814 812 811 808 804 800 799 795 793 790 789 787 784 781 778 774
735 739 743 744 747 748 751 758 759 761 767 770 775 780 784 787 792 795 800 803 806 807 809 811 812 812 812 811 809 807 804 801 797 794 791 785 787 780 777 774 771 767 763
728 731 734 736 740 743 747 752 755 760 763 768 773 777 781 786 790 794 798 800 801 804 806 807 807 808 808 807 804 802 800 799 797 793 792 777 782 773 769 764 761 757 753
722 725 729 733 737 742 746 750 754 759 764 769 773 777 780 785 789 792 796 797 800 802 803 803 804 804 804 802 802 800 798 794 790 790 790 778 774 765 760 755 752 748 743
720 725 728 732 736 740 744 748 752 757 762 768 773 777 781 784 788 791 795 795 796 798 800 800 801 801 800 799 798 796 795 793 785 783 783 777 767 763 754 747 742 740 736
720 725 729 734 738 741 747 749 752 757 762 767 773 777 781 784 787 789 790 792 795 797 797 796 796 796 796 795 794 794 793 791 788 777 776 773 766 766 751 741 736 735 733
Wind_Speed
34 32 29 28 26 23 22 22 18 17 17 17 16 16 16 16 15 15 15 13 14 14 14 14 14 13 13 11 10 10 9 9 8 9 9 9 8 8 9 9 9 10 10
33 31 29 27 24 21 20 18 15 14 17 17 17 15 14 14 12 12 12 12 11 11 13 13 12 11 10 10 9 9 8 6 7 7 7 7 7 8 8 8 8 8 9
32 30 28 26 23 21 20 17 16 15 16 17 15 15 13 12 10 10 9 10 13 12 12 13 13 11 10 9 8 8 7 5 6 7 6 6 6 5 5 6 7 7 8
30 29 27 26 23 20 19 16 17 18 17 17 16 13 13 11 10 10 8 9 11 14 15 15 14 13 12 11 9 7 6 6 7 7 6 5 3 1 4 5 6 6 7
28 27 25 24 22 20 18 17 19 18 18 15 13 13 12 11 10 9 7 8 9 14 15 16 17 15 12 12 11 9 8 8 8 7 7 6 3 3 5 5 5 5 6
25 24 23 21 19 20 19 19 19 18 16 15 14 13 14 14 14 13 11 10 12 14 15 16 17 16 15 13 12 10 10 10 10 10 9 8 6 5 6 5 6 7 7
24 22 21 18 21 22 20 18 20 19 17 18 14 11 14 16 17 17 17 16 17 18 19 18 18 18 18 17 15 13 13 13 14 13 12 11 10 8 8 6 6 7 7
22 21 18 19 18 22 21 20 23 22 21 19 10 4 1 9 20 21 21 22 23 22 22 21 21 21 21 21 19 17 16 16 16 16 16 15 14 12 10 8 7 7 8
20 15 17 16 18 20 22 23 25 27 24 23 24 10 2 5 3 12 26 27 26 26 25 24 24 24 24 24 23 22 21 19 20 18 19 19 19 17 14 12 11 10 10
26 23 18 17 17 23 24 24 26 29 27 27 24 28 17 6 4 1 9 18 27 27 28 29 27 28 27 28 28 28 26 25 25 23 22 22 22 21 18 17 15 14 12
28 28 29 21 19 22 25 26 26 29 33 32 29 17 25 17 12 4 3 5 12 22 26 27 29 28 26 29 34 33 31 31 29 29 27 26 25 24 23 21 20 19 17
34 35 33 32 26 26 27 30 30 31 35 38 34 31 25 12 14 8 3 6 6 10 19 19 22 19 20 26 29 32 33 33 34 35 34 33 29 28 27 26 24 23 22
42 40 35 35 32 29 29 33 34 33 33 35 38 37 34 34 29 22 17 7 8 13 10 15 17 20 20 17 15 19 24 29 32 37 38 39 39 35 32 30 29 28 27
39 39 36 33 31 32 34 35 32 25 27 30 34 38 40 39 37 29 21 14 2 9 9 10 13 11 7 9 12 13 17 19 23 26 31 38 41 43 41 40 36 33 32
33 34 35 34 34 35 33 29 27 22 28 35 37 39 37 37 36 30 25 21 15 4 4 6 7 8 6 9 11 15 17 18 20 22 24 27 32 39 43 46 45 44 40
37 36 36 36 36 35 32 30 37 27 37 44 41 36 35 35 30 25 22 18 16 13 3 10 8 11 15 17 19 20 23 22 22 24 25 27 30 34 38 43 47 48 45
43 43 41 39 35 35 35 37 30 28 30 34 34 32 32 32 26 22 18 16 13 14 9 8 9 9 11 16 18 19 21 20 21 21 22 25 28 30 32 34 37 42 44
33 39 41 37 39 36 37 31 26 23 26 31 32 29 29 25 20 20 17 15 13 13 9 8 8 9 12 15 17 19 19 19 22 24 25 27 27 27 30 33 35 39 41
39 41 35 41 42 38 36 29 29 28 27 30 28 26 24 21 20 19 17 17 14 11 8 5 5 10 14 16 18 19 17 20 22 25 28 31 30 32 34 36 39 41 43
40 40 40 40 38 41 38 33 29 24 26 25 24 23 22 23 21 20 17 15 12 9 6 5 7 8 9 14 16 16 23 28 31 32 34 34 32 35 35 37 39 42 43
39 38 36 35 37 38 35 32 27 25 24 20 18 18 18 17 17 17 17 14 9 6 3 3 5 8 13 14 16 15 23 25 27 28 22 24 26 29 33 35 37 40 44
35 34 36 38 39 38 32 29 25 23 23 20 18 16 16 17 17 16 12 8 6 2 3 3 6 9 12 14 16 20 22 17 8 14 20 35 30 33 32 32 34 36 38
33 35 36 36 32 30 25 22 20 21 19 18 19 21 21 19 16 13 9 4 1 4 7 7 7 8 10 13 17 20 19 16 18 24 25 36 25 31 30 31 34 34 36
31 29 27 26 23 19 18 17 16 16 16 16 19 23 21 18 13 9 6 1 2 5 6 6 7 8 11 14 15 16 19 23 25 20 19 26 29 34 33 33 32 35 35
20 20 20 18 16 15 16 18 19 20 21 20 20 18 16 13 8 4 3 5 6 6 4 4 6 10 11 12 12 13 12 13 19 16 19 23 24 26 32 39 33 30 31
21 19 18 15 16 20 18 17 18 23 25 22 17 13 10 6 3 4 9 6 4 4 6 9 11 12 12 10 9 10 13 13 13 15 7 15 23 17 12 27 20 25 31
Wind_Direction
161 156 154 151 148 145 138 137 137 142 154 157 151 148 149 149 149 146 150 156 155 153 153 150 151 149 147 137 129 121 114 102 95 92 89 83 82 75 67 58 49 44 33
164 161 160 160 156 149 144 144 149 153 161 162 158 161 160 156 153 152 154 163 170 175 170 163 162 166 160 152 143 138 131 117 110 106 101 98 95 79 66 53 37 32 26
170 167 163 164 163 154 153 149 152 156 159 167 167 173 172 168 164 160 162 169 183 192 193 185 178 181 178 171 160 156 153 141 135 131 129 130 111 81 53 36 23 15 12
177 173 174 171 169 163 163 159 166 168 171 172 174 179 184 180 175 173 175 180 190 201 205 206 202 192 188 185 178 172 176 168 167 165 164 156 150 7 9 7 3 354 355
184 181 184 179 177 177 173 175 178 181 178 176 179 189 197 201 195 203 200 201 205 210 215 215 213 216 206 195 193 192 196 198 192 189 189 190 237 299 340 337 333 333 337
191 191 193 188 185 191 188 190 191 194 195 193 194 204 211 215 213 220 225 221 222 222 221 220 219 225 227 225 213 212 215 215 212 213 211 212 229 269 310 316 328 330 328
196 197 201 196 196 207 209 205 201 206 206 205 191 212 225 231 228 227 230 235 235 231 228 225 228 231 231 234 234 225 221 222 223 225 223 224 230 249 281 296 311 318 314
201 216 208 209 213 214 222 222 215 214 218 208 183 164 256 245 236 233 235 238 238 236 234 231 231 234 238 236 239 234 224 227 231 232 231 233 234 239 252 265 278 292 296
208 209 221 224 226 227 235 232 228 224 220 210 210 193 150 226 196 228 236 238 240 240 243 241 240 241 243 242 242 240 241 242 233 237 236 237 236 238 242 250 258 270 280
209 219 235 244 243 240 238 239 237 233 227 218 215 221 233 212 179 283 237 238 240 242 243 246 247 248 250 248 249 249 249 247 246 241 239 240 239 239 243 247 253 260 269
228 229 244 252 252 246 245 245 247 240 234 233 218 216 226 237 229 186 235 201 225 237 240 244 251 254 256 254 251 251 252 249 250 249 247 242 244 243 245 248 252 258 266
238 239 248 249 254 255 250 251 253 251 245 238 240 237 227 219 218 194 193 218 217 250 241 234 243 245 263 268 264 259 257 258 256 252 252 252 247 248 248 249 251 255 262
243 247 250 246 250 261 264 259 257 255 250 247 247 246 245 245 244 232 218 205 228 234 230 236 246 264 265 266 274 274 269 269 269 262 257 257 257 251 250 251 252 254 258
243 246 251 249 256 267 269 263 256 256 264 261 256 253 249 251 248 240 230 193 192 229 234 245 275 270 255 291 296 285 278 279 279 277 270 265 263 261 256 254 253 252 254
246 247 248 251 258 266 266 260 241 264 278 269 276 264 252 248 247 241 237 236 200 188 218 219 219 220 253 298 289 290 288 287 285 283 283 281 277 270 268 263 259 257 254
250 251 250 254 261 263 265 263 248 256 256 257 256 253 251 241 240 234 234 222 225 217 211 210 201 263 285 294 293 295 296 292 289 288 284 284 284 282 279 273 267 263 258
247 248 254 256 261 264 260 261 245 246 251 246 248 253 246 238 234 230 221 222 209 215 186 226 235 270 285 292 297 297 294 293 292 294 294 293 290 287 285 282 274 267 264
236 244 247 253 254 253 251 229 238 251 256 251 255 245 232 231 223 217 210 207 208 216 210 219 228 263 284 288 292 292 297 299 301 301 299 298 296 296 292 288 285 280 276
244 251 246 250 249 242 243 238 252 257 254 253 242 229 227 222 205 202 205 198 198 208 212 214 265 287 295 294 301 304 306 306 302 302 302 298 297 295 290 288 285 285 283
240 241 241 240 239 243 239 241 242 249 246 238 234 229 224 213 206 198 193 195 194 201 230 264 292 287 281 300 315 316 313 309 310 309 304 300 302 298 295 290 288 282 281
234 234 235 233 233 238 239 235 236 238 232 219 215 211 207 205 201 195 192 187 198 212 241 289 290 289 305 313 324 317 313 314 317 317 311 306 302 296 292 290 289 285 282
229 230 229 230 229 234 235 235 239 227 209 203 193 190 186 183 175 176 187 197 219 253 281 280 282 289 298 310 316 318 318 321 322 310 319 303 302 295 291 294 294 289 283
220 223 227 227 231 232 236 227 213 203 194 191 189 179 166 169 174 172 176 169 315 313 293 276 280 295 302 315 317 314 314 303 286 299 305 295 300 291 293 292 296 298 291
210 211 217 218 217 214 197 189 185 182 177 177 178 175 171 162 168 168 163 173 301 299 297 290 293 300 303 308 304 301 299 294 291 290 290 282 297 292 297 294 298 299 292
201 194 194 188 186 171 173 178 175 165 156 153 157 158 162 159 168 192 222 298 300 295 277 268 292 302 301 299 301 306 309 309 304 299 296 277 289 299 300 295 297 305 303
164 152 141 147 157 152 168 170 171 160 147 142 142 143 153 163 198 263 291 286 268 269 295 308 312 314 317 314 309 300 298 303 302 315 310 319 305 315 305 304 306 305 305